ONEWEB-0197 (48236 NORAD) Tracking and Keplerian Element Data

This shows tracking and keplerian element data for the satellite.

Feedback or suggestion? Click here.




ElementValue
Catalog48236
NameONEWEB-0197
Epoch Orbit171
Epoch Day136.75001157
Epoch Year2021
RAAN305.799
Inclination87.4099
Eccentricity0.0007188
Argument of Perigee195.0179
Mean Anonmoly116.9274
Mean Motion15.22547722
Decay Rate-0.01422077
L11 48236U 21031AC 21136.75001157 -.01422077 00000-0 -67775-1 0 9997
L22 48236 87.4099 305.7990 0007188 195.0179 116.9274 15.22547722 1717

Live tracking and technical data element details for ONEWEB-0197 (NORAD 48236). ONEWEB-0197 can be tracked NOW for your location showing map with azimuth and elevation plus other details from your city location.

Track the satellite on the map from your city or location and see movement details for azimuth, elevation, latitude, longitude, range, height, and movement on the map or in text.







IsCatalogInMostPopularTable: catalog: 48236, numindb: 4
Update: records affected: 1



GetName: 48236 ONEWEB-0197

Hit Count: updated at: Mon, 17 May 2021 15:53:34 GMT